| time (UTC) | temp F | wind direction | speed knots | gust knots | rain 1hr in | rain 24hr in | rain mn in | humidity % | barometer mb |
| 20260507124820 | 58 | 360 | 8.7 | 15.6 | 0.00 | 0.00 | 0.00 | 87 | 1017.5 |
| 20260507124322 | 58 | 5 | 7.0 | 12.2 | 0.00 | 0.00 | 0.00 | 87 | 1017.5 |
| 20260507123854 | 58 | 360 | 6.1 | 13.0 | 0.00 | 0.00 | 0.00 | 87 | 1017.6 |
| 20260507123321 | 58 | 333 | 5.2 | 13.0 | 0.00 | 0.00 | 0.00 | 87 | 1017.3 |
| 20260507122830 | 58 | 355 | 4.3 | 8.7 | 0.00 | 0.00 | 0.00 | 87 | 1017.1 |
| 20260507122336 | 58 | 37 | 3.5 | 7.8 | 0.00 | 0.00 | 0.00 | 87 | 1017.2 |
| 20260507121823 | 58 | 21 | 4.3 | 11.3 | 0.00 | 0.00 | 0.00 | 87 | 1017.3 |
| 20260507121328 | 58 | 45 | 6.1 | 11.3 | 0.00 | 0.00 | 0.00 | 87 | 1017.3 |
| 20260507120833 | 58 | 17 | 5.2 | 12.2 | 0.00 | 0.00 | 0.00 | 87 | 1017.4 |
| 20260507120335 | 58 | 344 | 4.3 | 13.9 | 0.00 | 0.00 | 0.00 | 87 | 1017.3 |
| 20260507115821 | 58 | 9 | 3.5 | 13.9 | 0.00 | 0.00 | 0.00 | 87 | 1017.0 |
| 20260507115321 | 58 | 11 | 7.0 | 13.9 | 0.00 | 0.00 | 0.00 | 87 | 1016.7 |
| 20260507114824 | 58 | 24 | 8.7 | 14.8 | 0.00 | 0.00 | 0.00 | 87 | 1016.4 |
| 20260507114356 | 59 | 41 | 8.7 | 14.8 | 0.00 | 0.00 | 0.00 | 87 | 1016.0 |
| 20260507113823 | 59 | 349 | 7.0 | 14.8 | 0.00 | 0.00 | 0.00 | 87 | 1016.0 |
| 20260507113328 | 59 | 5 | 4.3 | 13.0 | 0.00 | 0.00 | 0.00 | 87 | 1016.1 |
| 20260507112834 | 59 | 339 | 6.1 | 13.0 | 0.00 | 0.00 | 0.00 | 87 | 1016.0 |
| 20260507025326 | 62 | 5 | 6.1 | 11.3 | 0.00 | 0.00 | 0.00 | 85 | 1014.0 |
| 20260507024834 | 62 | 360 | 4.3 | 9.6 | 0.00 | 0.00 | 0.00 | 85 | 1013.9 |
| 20260507024335 | 62 | 346 | 5.2 | 10.4 | 0.00 | 0.00 | 0.00 | 85 | 1013.8 |
| 20260507023820 | 62 | 5 | 5.2 | 10.4 | 0.00 | 0.00 | 0.00 | 85 | 1013.6 |
| 20260507023322 | 62 | 355 | 4.3 | 12.2 | 0.00 | 0.00 | 0.00 | 85 | 1013.8 |
| 20260507022828 | 62 | 348 | 4.3 | 12.2 | 0.00 | 0.00 | 0.00 | 85 | 1013.5 |
| 20260507022328 | 62 | 349 | 5.2 | 11.3 | 0.00 | 0.00 | 0.00 | 85 | 1013.3 |
| 20260507021840 | 62 | 335 | 5.2 | 11.3 | 0.00 | 0.00 | 0.00 | 85 | 1013.3 |
| 20260507021346 | 62 | 346 | 4.3 | 8.7 | 0.00 | 0.00 | 0.00 | 85 | 1013.1 |
| 20260507020850 | 62 | 10 | 5.2 | 11.3 | 0.00 | 0.00 | 0.00 | 85 | 1013.2 |
| 20260507020335 | 62 | 355 | 5.2 | 11.3 | 0.00 | 0.00 | 0.00 | 85 | 1013.0 |
| 20260507015822 | 62 | 5 | 7.0 | 11.3 | 0.00 | 0.00 | 0.00 | 85 | 1013.0 |
| 20260507015324 | 62 | 355 | 6.1 | 11.3 | 0.00 | 0.00 | 0.00 | 85 | 1012.7 |
| 20260507014823 | 62 | 23 | 6.1 | 13.0 | 0.00 | 0.00 | 0.00 | 85 | 1012.9 |
| 20260507014329 | 62 | 355 | 5.2 | 13.0 | 0.00 | 0.00 | 0.00 | 85 | 1012.9 |
| 20260507013843 | 63 | 34 | 6.1 | 11.3 | 0.00 | 0.00 | 0.00 | 85 | 1012.7 |
| 20260507013318 | 63 | 25 | 6.1 | 12.2 | 0.00 | 0.00 | 0.00 | 85 | 1012.7 |
| 20260507012828 | 63 | 327 | 4.3 | 12.2 | 0.00 | 0.00 | 0.00 | 85 | 1012.5 |
| 20260507012333 | 63 | 13 | 5.2 | 8.7 | 0.00 | 0.00 | 0.00 | 85 | 1012.4 |
| 20260507011818 | 63 | 344 | 4.3 | 14.8 | 0.00 | 0.00 | 0.00 | 85 | 1012.2 |
| 20260507011327 | 63 | 360 | 5.2 | 14.8 | 0.00 | 0.00 | 0.00 | 85 | 1012.1 |
| 20260507010831 | 63 | 346 | 7.0 | 13.0 | 0.00 | 0.00 | 0.00 | 85 | 1012.1 |
| 20260507010318 | 63 | 314 | 8.7 | 13.0 | 0.00 | 0.00 | 0.00 | 85 | 1012.0 |
| 20260507005826 | 63 | 344 | 7.0 | 10.4 | 0.00 | 0.00 | 0.00 | 85 | 1012.0 |
| 20260507005327 | 63 | 349 | 7.0 | 10.4 | 0.00 | 0.00 | 0.00 | 85 | 1011.7 |
| 20260507004829 | 63 | 312 | 4.3 | 9.6 | 0.00 | 0.00 | 0.00 | 85 | 1011.8 |
| 20260507004345 | 64 | 19 | 3.5 | 9.6 | 0.00 | 0.00 | 0.00 | 85 | 1011.7 |
| 20260507003829 | 64 | 323 | 4.3 | 13.0 | 0.00 | 0.00 | 0.00 | 85 | 1011.6 |
| 20260507003331 | 64 | 21 | 7.8 | 13.0 | 0.00 | 0.00 | 0.00 | 85 | 1011.5 |
| 20260507002834 | 64 | 344 | 7.0 | 12.2 | 0.00 | 0.00 | 0.00 | 85 | 1011.6 |
| 20260507002318 | 64 | 327 | 7.0 | 14.8 | 0.00 | 0.00 | 0.00 | 85 | 1011.6 |
| 20260507001824 | 64 | 318 | 8.7 | 14.8 | 0.00 | 0.00 | 0.00 | 85 | 1011.6 |
| 20260507001326 | 64 | 360 | 7.8 | 13.0 | 0.00 | 0.00 | 0.00 | 85 | 1011.6 |
| 20260507000834 | 64 | 341 | 8.7 | 13.0 | 0.00 | 0.00 | 0.00 | 85 | 1011.6 |
| 20260507000321 | 64 | 305 | 6.1 | 13.0 | 0.00 | 0.00 | 0.00 | 85 | 1011.4 |
| 20260506235825 | 64 | 331 | 7.0 | 10.4 | 0.00 | 0.00 | 0.00 | 85 | 1011.3 |
| 20260506235328 | 65 | 329 | 6.1 | 13.0 | 0.00 | 0.00 | 0.00 | 85 | 1011.3 |
| 20260506234841 | 65 | 348 | 8.7 | 13.0 | 0.00 | 0.00 | 0.00 | 85 | 1011.2 |
| 20260506234326 | 65 | 298 | 7.0 | 12.2 | 0.00 | 0.00 | 0.00 | 85 | 1011.1 |
| 20260506233831 | 65 | 28 | 6.1 | 13.9 | 0.00 | 0.00 | 0.00 | 85 | 1011.2 |
| 20260506233319 | 66 | 333 | 8.7 | 13.9 | 0.00 | 0.00 | 0.00 | 85 | 1011.2 |
| 20260506232828 | 66 | 355 | 9.6 | 13.9 | 0.00 | 0.00 | 0.00 | 85 | 1011.0 |
| 20260506232332 | 66 | 263 | 9.6 | 13.0 | 0.00 | 0.00 | 0.00 | 85 | 1011.1 |
| 20260506231840 | 67 | 360 | 7.0 | 13.0 | 0.00 | 0.00 | 0.00 | 85 | 1011.1 |
| 20260506231331 | 67 | 327 | 8.7 | 13.0 | 0.00 | 0.00 | 0.00 | 85 | 1011.0 |
| 20260506230835 | 67 | 355 | 8.7 | 13.0 | 0.00 | 0.00 | 0.00 | 85 | 1011.1 |
| 20260506230343 | 67 | 17 | 5.2 | 11.3 | 0.00 | 0.00 | 0.00 | 86 | 1011.1 |
| 20260506225829 | 67 | 355 | 7.0 | 11.3 | 0.00 | 0.00 | 0.00 | 86 | 1011.0 |
| 20260506225333 | 68 | 325 | 7.0 | 11.3 | 0.00 | 0.00 | 0.00 | 86 | 1011.0 |
| 20260506224822 | 68 | 317 | 5.2 | 15.6 | 0.00 | 0.00 | 0.00 | 86 | 1010.9 |
| 20260506224328 | 68 | 336 | 7.0 | 14.8 | 0.00 | 0.00 | 0.00 | 86 | 1010.9 |
| 20260506223829 | 68 | 338 | 4.3 | 15.6 | 0.00 | 0.00 | 0.00 | 86 | 1010.9 |
| 20260506223336 | 68 | 355 | 6.1 | 15.6 | 0.00 | 0.00 | 0.00 | 86 | 1010.9 |
| 20260506222824 | 68 | 355 | 7.8 | 13.9 | 0.00 | 0.00 | 0.00 | 86 | 1010.8 |
| 20260506222326 | 69 | 340 | 7.8 | 13.9 | 0.00 | 0.00 | 0.00 | 86 | 1010.8 |
| 20260506221839 | 69 | 323 | 7.8 | 13.9 | 0.00 | 0.00 | 0.00 | 86 | 1010.8 |
| 20260506221318 | 70 | 317 | 7.0 | 13.0 | 0.00 | 0.00 | 0.00 | 86 | 1010.7 |
| 20260506220850 | 70 | 292 | 4.3 | 11.3 | 0.00 | 0.00 | 0.00 | 87 | 1010.6 |
| 20260506220336 | 70 | 279 | 5.2 | 13.0 | 0.00 | 0.00 | 0.00 | 87 | 1010.7 |
| 20260506215846 | 70 | 294 | 7.0 | 13.9 | 0.00 | 0.00 | 0.00 | 87 | 1010.7 |
| 20260506215329 | 70 | 321 | 7.8 | 13.9 | 0.00 | 0.00 | 0.00 | 86 | 1010.5 |
| 20260506214818 | 70 | 277 | 7.0 | 14.8 | 0.00 | 0.00 | 0.00 | 87 | 1010.5 |
| 20260506214346 | 70 | 330 | 7.0 | 14.8 | 0.00 | 0.00 | 0.00 | 87 | 1010.4 |
| 20260506213851 | 71 | 11 | 7.8 | 16.5 | 0.00 | 0.00 | 0.00 | 87 | 1010.5 |
| 20260506213337 | 71 | 309 | 7.8 | 16.5 | 0.00 | 0.00 | 0.00 | 87 | 1010.5 |
| 20260506212825 | 71 | 307 | 7.8 | 13.9 | 0.00 | 0.00 | 0.00 | 87 | 1010.4 |
| 20260506212327 | 71 | 347 | 7.0 | 13.9 | 0.00 | 0.00 | 0.00 | 87 | 1010.6 |
| 20260506211833 | 70 | 304 | 6.1 | 14.8 | 0.00 | 0.00 | 0.00 | 87 | 1010.7 |
| 20260506211346 | 70 | 328 | 8.7 | 14.8 | 0.00 | 0.00 | 0.00 | 87 | 1010.6 |
| 20260506210831 | 71 | 14 | 8.7 | 13.0 | 0.00 | 0.00 | 0.00 | 87 | 1010.6 |
| 20260506210339 | 71 | 317 | 7.0 | 13.9 | 0.00 | 0.00 | 0.00 | 87 | 1010.5 |
| 20260506205828 | 71 | 348 | 7.8 | 13.9 | 0.00 | 0.00 | 0.00 | 87 | 1010.6 |
| 20260506205350 | 72 | 294 | 6.1 | 14.8 | 0.00 | 0.00 | 0.00 | 87 | 1010.5 |
| 20260506204817 | 72 | 346 | 8.7 | 14.8 | 0.00 | 0.00 | 0.00 | 87 | 1010.4 |
| 20260506204347 | 72 | 317 | 6.1 | 13.9 | 0.00 | 0.00 | 0.00 | 87 | 1010.4 |
| 20260506203839 | 73 | 321 | 7.8 | 12.2 | 0.00 | 0.00 | 0.00 | 87 | 1010.5 |
| 20260506203322 | 73 | 360 | 8.7 | 11.3 | 0.00 | 0.00 | 0.00 | 87 | 1010.4 |
| 20260506202826 | 73 | 323 | 7.0 | 12.2 | 0.00 | 0.00 | 0.00 | 88 | 1010.3 |
| 20260506202329 | 74 | 300 | 6.1 | 12.2 | 0.00 | 0.00 | 0.00 | 87 | 1010.2 |
| 20260506201837 | 74 | 322 | 5.2 | 12.2 | 0.00 | 0.00 | 0.00 | 88 | 1010.2 |
| 20260506201321 | 74 | 327 | 5.2 | 10.4 | 0.00 | 0.00 | 0.00 | 88 | 1010.3 |
| 20260506200835 | 74 | 315 | 2.6 | 9.6 | 0.00 | 0.00 | 0.00 | 88 | 1010.3 |
| 20260506200343 | 75 | 336 | 4.3 | 12.2 | 0.00 | 0.00 | 0.00 | 88 | 1010.2 |
| 20260506195829 | 75 | 329 | 5.2 | 12.2 | 0.00 | 0.00 | 0.00 | 88 | 1010.3 |
| 20260506195336 | 75 | 317 | 3.5 | 10.4 | 0.00 | 0.00 | 0.00 | 88 | 1010.2 |
| 20260506194843 | 75 | 305 | 4.3 | 10.4 | 0.00 | 0.00 | 0.00 | 88 | 1010.2 |
| 20260506194327 | 76 | 298 | 6.1 | 10.4 | 0.00 | 0.00 | 0.00 | 88 | 1010.3 |
| 20260506193836 | 76 | 344 | 4.3 | 10.4 | 0.00 | 0.00 | 0.00 | 89 | 1010.3 |
| 20260506193326 | 75 | 325 | 2.6 | 7.8 | 0.00 | 0.00 | 0.00 | 89 | 1010.3 |
| 20260506192900 | 75 | 348 | 2.6 | 7.0 | 0.00 | 0.00 | 0.00 | 89 | 1010.3 |
| 20260506192346 | 75 | 350 | 2.6 | 7.0 | 0.00 | 0.00 | 0.00 | 88 | 1010.2 |
| 20260506191829 | 74 | 59 | 0.9 | 3.5 | 0.00 | 0.00 | 0.00 | 89 | 1010.1 |
| 20260506191332 | 73 | 59 | 0.9 | 6.1 | 0.00 | 0.00 | 0.00 | 89 | 1010.1 |
| 20260506190822 | 73 | 29 | 3.5 | 6.1 | 0.00 | 0.00 | 0.00 | 89 | 1010.1 |
| 20260506190325 | 72 | 71 | 3.5 | 7.0 | 0.00 | 0.00 | 0.00 | 89 | 1010.1 |
| 20260506185828 | 72 | 76 | 2.6 | 6.1 | 0.00 | 0.00 | 0.00 | 89 | 1010.0 |
| 20260506185403 | 71 | 98 | 2.6 | 9.6 | 0.00 | 0.00 | 0.00 | 89 | 1010.0 |
| 20260506184828 | 71 | 69 | 4.3 | 9.6 | 0.00 | 0.00 | 0.00 | 89 | 1010.0 |
| 20260506184332 | 71 | 84 | 5.2 | 8.7 | 0.00 | 0.00 | 0.00 | 89 | 1010.0 |
| 20260506183819 | 70 | 125 | 3.5 | 8.7 | 0.00 | 0.00 | 0.00 | 89 | 1010.1 |
| 20260506183326 | 70 | 115 | 1.7 | 8.7 | 0.00 | 0.00 | 0.00 | 89 | 1010.1 |
| 20260506182830 | 69 | 84 | 3.5 | 9.6 | 0.00 | 0.00 | 0.00 | 89 | 1010.1 |
| 20260506182335 | 68 | 73 | 6.1 | 9.6 | 0.00 | 0.00 | 0.00 | 89 | 1010.1 |
| 20260506181821 | 68 | 50 | 3.5 | 9.6 | 0.00 | 0.00 | 0.00 | 89 | 1010.4 |
| 20260506181326 | 67 | 84 | 6.1 | 9.6 | 0.00 | 0.00 | 0.00 | 89 | 1010.7 |
| 20260506180836 | 67 | 77 | 3.5 | 8.7 | 0.00 | 0.00 | 0.00 | 89 | 1010.7 |
| 20260506180343 | 66 | 112 | 3.5 | 11.3 | 0.00 | 0.00 | 0.00 | 89 | 1010.8 |
| 20260506175836 | 66 | 57 | 5.2 | 11.3 | 0.00 | 0.00 | 0.00 | 89 | 1010.8 |
| 20260506175339 | 65 | 42 | 5.2 | 12.2 | 0.00 | 0.00 | 0.00 | 89 | 1010.9 |
| 20260506174844 | 65 | 61 | 7.0 | 13.0 | 0.00 | 0.00 | 0.00 | 89 | 1011.0 |
| 20260506174327 | 64 | 67 | 8.7 | 14.8 | 0.00 | 0.00 | 0.00 | 89 | 1011.0 |
| 20260506173834 | 64 | 51 | 6.1 | 13.0 | 0.00 | 0.00 | 0.00 | 89 | 1011.1 |
| 20260506173321 | 64 | 26 | 7.0 | 15.6 | 0.00 | 0.00 | 0.00 | 88 | 1011.2 |
| 20260506172846 | 63 | 349 | 9.6 | 16.5 | 0.00 | 0.00 | 0.00 | 88 | 1011.2 |
| 20260506172337 | 63 | 30 | 10.4 | 17.4 | 0.00 | 0.00 | 0.00 | 88 | 1011.3 |
| 20260506171842 | 63 | 355 | 9.6 | 17.4 | 0.00 | 0.00 | 0.00 | 88 | 1011.5 |
| 20260506171318 | 63 | 9 | 9.6 | 13.9 | 0.00 | 0.00 | 0.00 | 88 | 1011.9 |
| 20260506170830 | 62 | 323 | 7.0 | 16.5 | 0.00 | 0.00 | 0.00 | 88 | 1012.2 |
| 20260506170337 | 62 | 340 | 7.8 | 16.5 | 0.00 | 0.00 | 0.00 | 88 | 1012.5 |
| 20260506165824 | 63 | 342 | 8.7 | 15.6 | 0.00 | 0.00 | 0.00 | 88 | 1012.6 |
| 20260506165348 | 63 | 313 | 7.8 | 16.5 | 0.00 | 0.00 | 0.00 | 88 | 1012.9 |
| 20260506164828 | 63 | 360 | 11.3 | 20.0 | 0.00 | 0.00 | 0.00 | 87 | 1013.0 |
| 20260506164333 | 64 | 337 | 12.2 | 20.0 | 0.00 | 0.00 | 0.00 | 87 | 1013.0 |
| 20260506163818 | 64 | 333 | 10.4 | 21.7 | 0.00 | 0.00 | 0.00 | 88 | 1012.9 |
| 20260506163347 | 65 | 321 | 13.0 | 21.7 | 0.00 | 0.00 | 0.00 | 87 | 1012.9 |
| 20260506162829 | 66 | 275 | 11.3 | 17.4 | 0.00 | 0.00 | 0.00 | 88 | 1013.0 |
| 20260506162333 | 66 | 288 | 10.4 | 17.4 | 0.00 | 0.00 | 0.00 | 88 | 1012.6 |
| 20260506161818 | 67 | 317 | 7.8 | 14.8 | 0.00 | 0.00 | 0.00 | 87 | 1012.4 |
| 20260506161323 | 69 | 316 | 7.0 | 15.6 | 0.00 | 0.00 | 0.00 | 87 | 1012.4 |
| 20260506160825 | 70 | 317 | 8.7 | 18.2 | 0.00 | 0.00 | 0.00 | 86 | 1012.2 |
| 20260506160328 | 73 | 308 | 9.6 | 20.9 | 0.00 | 0.00 | 0.00 | 86 | 1012.1 |
| 20260506155832 | 76 | 339 | 13.0 | 20.9 | 0.00 | 0.00 | 0.00 | 86 | 1011.7 |
| 20260506155405 | 78 | 322 | 4.3 | 13.0 | 0.00 | 0.00 | 0.00 | 89 | 1011.1 |
| 20260506154827 | 77 | 186 | 1.7 | 3.5 | 0.00 | 0.00 | 0.00 | 89 | 1010.7 |
| 20260506154330 | 77 | 138 | 1.7 | 3.5 | 0.00 | 0.00 | 0.00 | 89 | 1010.5 |
| 20260506153818 | 77 | 125 | 0.0 | 3.5 | 0.00 | 0.00 | 0.00 | 89 | 1010.4 |
| 20260506153346 | 77 | 125 | 1.7 | 3.5 | 0.00 | 0.00 | 0.00 | 89 | 1010.3 |
| 20260506152828 | 77 | 118 | 0.9 | 2.6 | 0.00 | 0.00 | 0.00 | 89 | 1010.4 |
| 20260506152334 | 77 | 118 | 0.9 | 2.6 | 0.00 | 0.00 | 0.00 | 89 | 1010.4 |
| 20260506151837 | 77 | 193 | 0.9 | 5.2 | 0.00 | 0.00 | 0.00 | 88 | 1010.3 |
| 20260506151342 | 77 | 193 | 1.7 | 5.2 | 0.00 | 0.00 | 0.00 | 88 | 1010.4 |
| 20260506150826 | 77 | 163 | 0.9 | 4.3 | 0.00 | 0.00 | 0.00 | 88 | 1010.5 |
| 20260506150332 | 77 | 155 | 0.9 | 2.6 | 0.00 | 0.00 | 0.00 | 89 | 1010.3 |
| 20260506145838 | 77 | 153 | 0.9 | 2.6 | 0.00 | 0.00 | 0.00 | 88 | 1010.2 |
| 20260506145322 | 76 | 153 | 0.9 | 2.6 | 0.00 | 0.00 | 0.00 | 88 | 1010.2 |
| 20260506144828 | 76 | 153 | 0.9 | 1.7 | 0.00 | 0.00 | 0.00 | 88 | 1010.3 |
| 20260506144334 | 76 | 153 | 0.9 | 1.7 | 0.00 | 0.00 | 0.00 | 88 | 1010.4 |
| 20260506143821 | 76 | 153 | 0.0 | 2.6 | 0.00 | 0.00 | 0.00 | 88 | 1010.2 |
| 20260506143329 | 76 | 153 | 0.9 | 2.6 | 0.00 | 0.00 | 0.00 | 88 | 1010.5 |
| 20260506142833 | 76 | 150 | 0.0 | 4.3 | 0.00 | 0.00 | 0.00 | 88 | 1010.3 |
| 20260506142407 | 76 | 151 | 0.9 | 4.3 | 0.00 | 0.00 | 0.00 | 88 | 1010.1 |
| 20260506141829 | 76 | 151 | 1.7 | 5.2 | 0.00 | 0.00 | 0.00 | 88 | 1009.9 |
| 20260506141335 | 76 | 153 | 2.6 | 5.2 | 0.00 | 0.00 | 0.00 | 88 | 1009.9 |
| 20260506140821 | 76 | 154 | 1.7 | 4.3 | 0.00 | 0.00 | 0.00 | 88 | 1009.9 |
| 20260506140327 | 76 | 157 | 2.6 | 4.3 | 0.00 | 0.00 | 0.00 | 88 | 1009.8 |
| 20260506135827 | 76 | 175 | 0.9 | 3.5 | 0.00 | 0.00 | 0.00 | 88 | 1009.7 |
| 20260506135334 | 76 | 175 | 1.7 | 3.5 | 0.00 | 0.00 | 0.00 | 88 | 1009.7 |
| 20260506134822 | 76 | 175 | 0.0 | 1.7 | 0.00 | 0.00 | 0.00 | 88 | 1009.7 |
| 20260506134325 | 76 | 177 | 0.9 | 2.6 | 0.00 | 0.00 | 0.00 | 88 | 1009.8 |
| 20260506133829 | 76 | 177 | 1.7 | 3.5 | 0.00 | 0.00 | 0.00 | 88 | 1009.8 |
| 20260506133333 | 76 | 177 | 1.7 | 3.5 | 0.00 | 0.00 | 0.00 | 88 | 1009.7 |
| 20260506132845 | 76 | 184 | 0.9 | 2.6 | 0.00 | 0.00 | 0.00 | 88 | 1009.6 |
| 20260506132327 | 75 | 184 | 0.0 | 2.6 | 0.00 | 0.00 | 0.00 | 87 | 1009.6 |
| 20260506131854 | 75 | 184 | 0.9 | 2.6 | 0.00 | 0.00 | 0.00 | 87 | 1009.6 |
| 20260506131340 | 75 | 184 | 0.9 | 2.6 | 0.00 | 0.00 | 0.00 | 87 | 1009.5 |
| 20260506130824 | 75 | 185 | 0.0 | 1.7 | 0.00 | 0.00 | 0.00 | 87 | 1009.6 |
| 20260506130329 | 75 | 185 | 0.0 | 1.7 | 0.00 | 0.00 | 0.00 | 87 | 1009.6 |
| 20260506125842 | 75 | 185 | 0.9 | 1.7 | 0.00 | 0.00 | 0.00 | 87 | 1009.6 |
| 20260506125349 | 75 | 185 | 0.0 | 1.7 | 0.00 | 0.00 | 0.00 | 87 | 1009.6 |